Regional Weather Roundup
Issued by NWS

Home | Current Version | Previous Version | Graphics & Text | Print | Product List | Glossary Off
Versions: 1 2 3 4 5 6 7 8 9 10 11 12 13 14 15 16 17 18 19 20 21 22 23 24 25 26 27 28 29 30 31 32 33 34 35 36 37 38 39 40 41 42 43 44 45 46 47 48 49 50

000
ASUS43 KTOP 050408
RWRKS

WEATHER ROUNDUP FOR KANSAS
NATIONAL WEATHER SERVICE GOODLAND KS
1000 PM CST SUN DEC 04 2016

NOTE:  "FAIR" INDICATES FEW OR NO CLOUDS BELOW 12,000 FEET WITH NO
SIGNIFICANT WEATHER AND/OR OBSTRUCTIONS TO VISIBILITY.

KSZ001>006-013>018-027>032-041>047-050500-
NORTHWEST KANSAS

CITY           SKY/WX    TMP DP  RH WIND       PRES   REMARKS
GOODLAND       CLOUDY    35  14  42 S20       29.80F WCI  24
HAYS           CLEAR     32  25  75 SW7       29.92F
HILL CITY      CLEAR     33  21  61 SW7       29.87F
RUSSELL        CLEAR     34  27  75 S12       29.90F WCI  25
$$

KSZ061>065-074>080-084>089-050500-
SOUTHWEST KANSAS

CITY           SKY/WX    TMP DP  RH WIND       PRES   REMARKS
DODGE CITY     CLEAR     32  23  69 S7        29.94F
ELKHART          N/A     32  15  49 S10         N/A  WCI  24
GARDEN CITY    CLEAR     32  23  69 S9        29.90F
GREAT BEND     CLEAR     31  27  85 S9        29.94F
LIBERAL        CLOUDY    30  19  64 S7        29.93F
PRATT          CLEAR     29  23  79 SW8       29.96F
$$

KSZ066>073-081>083-090>101-050500-
SOUTHEAST KANSAS

CITY           SKY/WX    TMP DP  RH WIND       PRES   REMARKS
CHANUTE        CLEAR     31  29  92 SE8       30.01F FOG
COFFEYVILLE    CLOUDY    32  31  96 SE5       30.04R
HUTCHINSON     CLEAR     29  26  89 S3        29.97F
MEDICINE LODGE   N/A     31  26  82 CALM      29.99S
NEWTON         CLEAR     36  34  92 S8        29.98F
PARSONS        PTCLDY    30  29  96 CALM      30.04R FOG
WICHITA INTL   CLEAR     35  33  92 S3        29.99S
WICHITA JABRA  CLEAR     37  36  96 SW8       29.99S
WICHITA MCCONL CLEAR     37  36  94 S3        29.99F
WINFIELD       CLEAR     35  33  92 CALM      30.02S
$$

KSZ007>012-019>026-033>040-048>060-102>105-050500-
NORTHEAST KANSAS

CITY           SKY/WX    TMP DP  RH WIND       PRES   REMARKS
CONCORDIA      CLEAR     38  31  76 S14       29.92F WCI  30
EMPORIA        CLEAR     32  31  96 S7        29.99S
LAWRENCE       CLEAR     27  27 100 CALM      30.00S FOG
MANHATTAN      CLEAR     30  28  92 CALM      29.96F FOG
MARYSVILLE     CLEAR     32  32 100 S6        29.94F
OLATHE IND     CLEAR     32  32 100 S3        30.00F FOG
OLATHE EXE     CLEAR     33  32  96 SW3       30.00S FOG
SALINA         CLEAR     31  29  92 S7        29.95F
TOPEKA BILLARD FOG       29  26  89 CALM      29.99F VSB 1
TOPEKA FORBES  CLEAR     34  31  88 S6        29.98F
$$



USA.gov is the U.S. government's official web portal to all federal, state and local government web resources and services.